Location: Gairloch Mountain Observatory
(46.1383°N, 60.9640°W)
Time: 19:10:32
(UTC-03:00)

CENTAUR R/B - Visible Passes

Search period start: 21 June 2018 00:00
Search period end: 01 July 2018 00:00
Orbit: 804 x 1384 km, 63.5° (Epoch: 19 June)

Date Brightness Start Highest point End Pass type
(mag) Time Alt. Az. Time Alt. Az. Time Alt. Az.
21 Jun 3.3 00:42:09 10° NW 00:49:58 61° WSW 00:54:13 31° S visible
21 Jun 4.7 02:35:36 10° WNW 02:39:28 14° WSW 02:41:22 13° WSW visible
21 Jun 4.3 22:03:12 10° NNW 22:10:05 35° NNE 22:17:36 10° E visible
21 Jun 3.1 23:53:48 10° NW 00:01:44 87° SW 00:07:06 26° SE visible
22 Jun 4.3 01:45:39 10° WNW 01:51:45 24° WSW 01:54:15 21° SW visible
22 Jun 3.3 23:05:32 10° NW 23:13:21 68° NE 23:20:03 18° SE visible
23 Jun 3.9 00:56:41 10° NW 01:03:52 37° WSW 01:07:12 27° SSW visible
23 Jun 3.7 22:17:19 10° NW 22:24:48 50° NE 22:32:58 10° ESE visible
24 Jun 3.4 00:08:05 10° NW 00:15:49 56° WSW 00:20:13 29° S visible
24 Jun 4.9 02:02:17 10° W 02:05:11 12° WSW 02:07:22 11° WSW visible
24 Jun 4.1 21:29:05 10° NNW 21:36:06 37° NE 21:43:45 10° E visible
24 Jun 3.2 23:19:41 10° NW 23:27:37 80° SW 23:33:17 24° SSE visible
25 Jun 4.5 01:11:48 10° WNW 01:17:31 21° WSW 01:20:26 18° SW visible
25 Jun 3.3 22:31:25 10° NW 22:39:17 74° NE 22:46:24 16° SE visible
26 Jun 4.1 00:22:41 10° NW 00:29:41 33° WSW 00:33:33 23° SSW visible
26 Jun 3.6 21:43:11 10° NW 21:50:46 53° NE 21:59:02 10° ESE visible
26 Jun 3.6 23:34:01 10° NW 23:41:40 51° WSW 23:46:44 24° S visible
27 Jun 5.1 01:29:47 10° W 01:30:55 10° W 01:32:02 10° WSW visible
27 Jun 3.2 22:45:36 10° NW 22:53:31 74° SW 22:59:57 19° SSE visible
28 Jun 4.7 00:38:02 10° WNW 00:43:17 19° WSW 00:47:08 14° SW visible
28 Jun 3.2 21:57:18 10° NW 22:05:12 80° NE 22:13:13 12° SE visible
28 Jun 4.3 23:48:43 10° NW 23:55:29 30° WSW 00:00:24 18° SSW visible
29 Jun 3.8 22:59:58 10° NW 23:07:30 46° WSW 23:13:44 17° S visible
30 Jun 3.4 22:11:30 10° NW 22:19:23 68° WSW 22:27:06 13° SSE visible
